Dew Point Data


Current

Temp 32.0 F. Dew Point 27.0 F.


Dew Point Comfort Scale

dewpoints

Date, Time Temperature Dew Point
Mon Oct 8 00:08:04 2018 72.0 F. 66.9 F.
Mon Oct 8 01:08:05 2018 67.0 F. 66.0 F.
Mon Oct 8 02:08:05 2018 71.0 F. 66.9 F.
Mon Oct 8 03:08:05 2018 70.0 F. 68.0 F.
Mon Oct 8 04:08:05 2018 71.0 F. 68.0 F.
Mon Oct 8 05:08:05 2018 70.0 F. 68.0 F.
Mon Oct 8 06:08:05 2018 69.0 F. 66.9 F.
Mon Oct 8 07:08:05 2018 68.0 F. 66.9 F.
Mon Oct 8 08:08:04 2018 68.0 F. 66.9 F.
Mon Oct 8 09:08:04 2018 75.0 F. 68.0 F.
Mon Oct 8 10:08:05 2018 80.0 F. 68.0 F.
Mon Oct 8 11:08:04 2018 80.0 F. 68.0 F.
Mon Oct 8 12:08:05 2018 84.0 F. 68.0 F.
Mon Oct 8 13:08:04 2018 85.0 F. 66.9 F.
Mon Oct 8 14:08:05 2018 84.0 F. 66.9 F.
Mon Oct 8 15:08:05 2018 85.0 F. 66.9 F.
Mon Oct 8 16:08:05 2018 87.0 F. 64.9 F.
Mon Oct 8 16:21:41 2018 87.0 F. 64.9 F.
Mon Oct 8 17:08:06 2018 84.0 F. 66.9 F.
Mon Oct 8 18:08:05 2018 83.0 F. 66.9 F.
Mon Oct 8 19:08:06 2018 83.0 F. 66.9 F.
Mon Oct 8 20:08:05 2018 76.0 F. 68.0 F.
Mon Oct 8 21:08:05 2018 75.0 F. 68.0 F.
Mon Oct 8 22:08:05 2018 74.0 F. 69.1 F.
Mon Oct 8 23:08:05 2018 73.0 F. 69.1 F.
Tue Oct 9 00:08:05 2018 72.0 F. 68.0 F.
Tue Oct 9 01:08:04 2018 71.0 F. 68.0 F.
Tue Oct 9 02:08:05 2018 71.0 F. 68.0 F.
Tue Oct 9 03:08:05 2018 72.0 F. 69.1 F.
Tue Oct 9 04:08:05 2018 73.0 F. 69.1 F.
Tue Oct 9 05:08:05 2018 73.0 F. 68.0 F.
Tue Oct 9 06:08:05 2018 72.0 F. 68.0 F.
Tue Oct 9 07:08:04 2018 71.0 F. 68.0 F.
Tue Oct 9 08:08:05 2018 73.0 F. 68.0 F.
Tue Oct 9 09:08:05 2018 75.0 F. 68.0 F.
Tue Oct 9 10:08:05 2018 77.0 F. 69.1 F.
Tue Oct 9 11:08:05 2018 81.0 F. 69.1 F.
Tue Oct 9 12:08:06 2018 81.0 F. 68.0 F.
Tue Oct 9 13:08:05 2018 86.0 F. 68.0 F.
Tue Oct 9 14:08:05 2018 84.0 F. 68.0 F.
Tue Oct 9 15:08:05 2018 83.0 F. 66.9 F.
Tue Oct 9 16:08:05 2018 86.0 F. 66.0 F.
Tue Oct 9 17:08:06 2018 83.0 F. 66.9 F.
Tue Oct 9 18:08:05 2018 82.0 F. 66.9 F.
Tue Oct 9 19:08:05 2018 82.0 F. 66.9 F.
Tue Oct 9 20:08:10 2018 76.0 F. 66.9 F.
Tue Oct 9 21:08:05 2018 75.0 F. 66.9 F.
Tue Oct 9 22:08:05 2018 75.0 F. 66.9 F.
Tue Oct 9 23:08:06 2018 74.0 F. 66.0 F.
Wed Oct 10 00:08:06 2018 73.0 F. 66.0 F.
Wed Oct 10 01:08:05 2018 73.0 F. 66.9 F.
Wed Oct 10 02:08:05 2018 72.0 F. 66.9 F.
Wed Oct 10 03:08:04 2018 72.0 F. 66.9 F.
Wed Oct 10 04:08:05 2018 72.0 F. 66.9 F.
Wed Oct 10 05:08:04 2018 72.0 F. 66.9 F.
Wed Oct 10 06:08:04 2018 72.0 F. 68.0 F.
Wed Oct 10 07:08:05 2018 72.0 F. 68.0 F.
Wed Oct 10 08:08:06 2018 72.0 F. 68.0 F.
Wed Oct 10 09:08:05 2018 74.0 F. 69.1 F.
Wed Oct 10 10:08:07 2018 73.0 F. 70.0 F.
Wed Oct 10 11:08:04 2018 74.0 F. 69.1 F.
Wed Oct 10 12:08:05 2018 74.0 F. 66.9 F.
Wed Oct 10 13:08:05 2018 75.0 F. 66.9 F.
Wed Oct 10 14:08:05 2018 75.0 F. 66.9 F.
Wed Oct 10 15:08:05 2018 77.0 F. 69.1 F.
Wed Oct 10 16:08:05 2018 73.0 F. 66.0 F.
Wed Oct 10 17:08:13 2018 73.0 F. 66.0 F.
Wed Oct 10 18:08:17 2018 74.0 F. 66.9 F.
Wed Oct 10 19:08:06 2018 70.0 F. 63.0 F.
Wed Oct 10 20:08:05 2018 68.0 F. 59.0 F.
Wed Oct 10 21:08:04 2018 64.0 F. 54.0 F.
Wed Oct 10 22:08:05 2018 61.0 F. 52.0 F.
Wed Oct 10 23:08:05 2018 58.0 F. 50.0 F.
Thu Oct 11 00:08:05 2018 55.0 F. 46.9 F.
Thu Oct 11 01:08:05 2018 53.0 F. 46.9 F.
Thu Oct 11 02:08:04 2018 52.0 F. 46.9 F.
Thu Oct 11 03:08:04 2018 53.0 F. 46.0 F.
Thu Oct 11 04:08:05 2018 52.0 F. 44.1 F.
Thu Oct 11 05:08:04 2018 53.0 F. 45.0 F.
Thu Oct 11 06:08:05 2018 52.0 F. 42.1 F.
Thu Oct 11 07:08:04 2018 51.0 F. 42.1 F.
Thu Oct 11 08:08:05 2018 51.0 F. 42.1 F.
Thu Oct 11 09:08:05 2018 51.0 F. 41.0 F.
Thu Oct 11 10:08:05 2018 52.0 F. 39.9 F.
Thu Oct 11 11:08:04 2018 54.0 F. 39.9 F.
Thu Oct 11 12:08:05 2018 57.0 F. 39.9 F.
Thu Oct 11 13:08:05 2018 59.0 F. 42.1 F.
Thu Oct 11 14:08:10 2018 59.0 F. 39.9 F.
Thu Oct 11 15:08:06 2018 60.0 F. 39.9 F.
Thu Oct 11 16:08:06 2018 61.0 F. 39.0 F.
Thu Oct 11 17:08:05 2018 59.0 F. 39.0 F.
Thu Oct 11 18:08:05 2018 57.0 F. 37.9 F.
Thu Oct 11 19:08:05 2018 52.0 F. 37.9 F.
Thu Oct 11 20:08:05 2018 49.0 F. 39.9 F.
Thu Oct 11 21:08:05 2018 47.0 F. 41.0 F.
Thu Oct 11 22:08:05 2018 46.0 F. 42.1 F.
Thu Oct 11 23:08:05 2018 45.0 F. 42.1 F.
Fri Oct 12 00:08:04 2018 43.0 F. 39.9 F.
Fri Oct 12 01:08:05 2018 42.0 F. 39.9 F.
Fri Oct 12 02:08:05 2018 39.0 F. 37.9 F.
Fri Oct 12 03:08:05 2018 40.0 F. 39.0 F.
Fri Oct 12 04:08:04 2018 38.0 F. 37.0 F.
Fri Oct 12 05:08:05 2018 38.0 F. 37.0 F.
Fri Oct 12 06:08:05 2018 38.0 F. 37.9 F.
Fri Oct 12 07:08:04 2018 38.0 F. 37.0 F.
Fri Oct 12 08:08:04 2018 42.0 F. 41.0 F.
Fri Oct 12 09:08:05 2018 46.0 F. 39.9 F.
Fri Oct 12 10:08:06 2018 47.0 F. 39.9 F.
Fri Oct 12 11:08:05 2018 51.0 F. 37.9 F.
Fri Oct 12 12:08:04 2018 50.0 F. 37.0 F.
Fri Oct 12 13:08:05 2018 51.0 F. 37.9 F.
Fri Oct 12 14:08:05 2018 50.0 F. 39.0 F.
Fri Oct 12 15:08:06 2018 47.0 F. 42.1 F.
Fri Oct 12 16:08:05 2018 46.0 F. 43.0 F.
Fri Oct 12 17:08:05 2018 45.0 F. 44.1 F.
Fri Oct 12 18:08:04 2018 45.0 F. 43.0 F.
Fri Oct 12 19:08:06 2018 45.0 F. 44.1 F.
Fri Oct 12 20:08:05 2018 45.0 F. 43.0 F.
Fri Oct 12 21:08:05 2018 45.0 F. 44.1 F.
Fri Oct 12 22:08:05 2018 45.0 F. 44.1 F.
Fri Oct 12 23:08:04 2018 45.0 F. 43.0 F.
Sat Oct 13 00:08:05 2018 45.0 F. 44.1 F.
Sat Oct 13 01:08:05 2018 45.0 F. 44.1 F.
Sat Oct 13 02:08:04 2018 45.0 F. 43.0 F.
Sat Oct 13 03:08:04 2018 45.0 F. 43.0 F.
Sat Oct 13 04:08:05 2018 45.0 F. 42.1 F.
Sat Oct 13 05:08:04 2018 45.0 F. 43.0 F.
Sat Oct 13 06:08:05 2018 45.0 F. 43.0 F.
Sat Oct 13 07:08:05 2018 45.0 F. 42.1 F.
Sat Oct 13 08:08:04 2018 45.0 F. 42.1 F.
Sat Oct 13 09:08:06 2018 45.0 F. 41.0 F.
Sat Oct 13 10:08:05 2018 46.0 F. 39.9 F.
Sat Oct 13 11:08:04 2018 46.0 F. 39.0 F.
Sat Oct 13 12:08:04 2018 46.0 F. 39.9 F.
Sat Oct 13 13:08:05 2018 48.0 F. 39.9 F.
Sat Oct 13 14:08:05 2018 48.0 F. 39.9 F.
Sat Oct 13 15:08:05 2018 49.0 F. 41.0 F.
Sat Oct 13 16:08:05 2018 49.0 F. 41.0 F.
Sat Oct 13 17:08:05 2018 49.0 F. 42.1 F.
Sat Oct 13 18:08:05 2018 49.0 F. 42.1 F.
Sat Oct 13 19:08:05 2018 48.0 F. 43.0 F.
Sat Oct 13 20:08:05 2018 47.0 F. 45.0 F.
Sat Oct 13 21:08:05 2018 47.0 F. 45.0 F.
Sat Oct 13 22:08:05 2018 47.0 F. 45.0 F.
Sat Oct 13 23:08:05 2018 47.0 F. 46.0 F.
Sun Oct 14 00:08:06 2018 47.0 F. 46.0 F.
Sun Oct 14 01:08:04 2018 47.0 F. 46.0 F.
Sun Oct 14 02:08:05 2018 47.0 F. 46.0 F.
Sun Oct 14 03:08:05 2018 47.0 F. 46.0 F.
Sun Oct 14 04:08:05 2018 47.0 F. 46.0 F.
Sun Oct 14 05:08:04 2018 48.0 F. 46.9 F.
Sun Oct 14 06:08:05 2018 48.0 F. 46.9 F.
Sun Oct 14 07:08:05 2018 49.0 F. 48.0 F.
Sun Oct 14 08:08:05 2018 49.0 F. 48.0 F.
Sun Oct 14 09:08:05 2018 50.0 F. 48.9 F.
Sun Oct 14 10:08:05 2018 51.0 F. 50.0 F.
Sun Oct 14 11:08:05 2018 52.0 F. 51.1 F.
Sun Oct 14 12:08:05 2018 53.0 F. 52.0 F.
Sun Oct 14 13:08:05 2018 54.0 F. 53.1 F.
Sun Oct 14 14:08:05 2018 55.0 F. 53.1 F.
Sun Oct 14 15:08:05 2018 55.0 F. 53.1 F.
Sun Oct 14 16:08:05 2018 55.0 F. 53.1 F.
Sun Oct 14 17:08:10 2018 55.0 F. 53.1 F.
Sun Oct 14 18:08:05 2018 54.0 F. 54.0 F.
Sun Oct 14 19:08:04 2018 54.0 F. 54.0 F.
Sun Oct 14 20:08:05 2018 54.0 F. 54.0 F.
Sun Oct 14 21:08:05 2018 55.0 F. 54.0 F.
Sun Oct 14 22:08:05 2018 54.0 F. 54.0 F.
Sun Oct 14 23:08:05 2018 54.0 F. 54.0 F.
Mon Oct 15 00:08:05 2018 54.0 F. 54.0 F.
Mon Oct 15 01:08:05 2018 54.0 F. 53.1 F.
Mon Oct 15 02:08:04 2018 54.0 F. 53.1 F.
Mon Oct 15 03:08:05 2018 54.0 F. 53.1 F.
Mon Oct 15 04:08:05 2018 54.0 F. 53.1 F.
Mon Oct 15 05:08:05 2018 54.0 F. 53.1 F.
Mon Oct 15 06:08:04 2018 51.0 F. 50.0 F.
Mon Oct 15 07:08:05 2018 47.0 F. 46.0 F.
Mon Oct 15 08:08:05 2018 45.0 F. 44.1 F.
Mon Oct 15 09:08:04 2018 45.0 F. 43.0 F.
Mon Oct 15 10:08:06 2018 45.0 F. 42.1 F.
Mon Oct 15 11:08:05 2018 44.0 F. 39.9 F.
Mon Oct 15 12:08:04 2018 44.0 F. 39.0 F.
Mon Oct 15 13:08:05 2018 43.0 F. 37.9 F.
Mon Oct 15 14:08:04 2018 43.0 F. 37.0 F.
Mon Oct 15 15:08:05 2018 44.0 F. 36.0 F.
Mon Oct 15 16:08:05 2018 45.0 F. 36.0 F.
Mon Oct 15 17:08:05 2018 45.0 F. 36.0 F.
Mon Oct 15 18:08:05 2018 44.0 F. 36.0 F.
Mon Oct 15 19:08:05 2018 43.0 F. 37.0 F.
Mon Oct 15 20:08:05 2018 42.0 F. 37.9 F.
Mon Oct 15 21:08:04 2018 42.0 F. 39.0 F.
Mon Oct 15 22:08:05 2018 41.0 F. 39.9 F.
Mon Oct 15 23:08:05 2018 41.0 F. 39.9 F.
Tue Oct 16 00:08:05 2018 41.0 F. 39.9 F.
Tue Oct 16 01:08:05 2018 41.0 F. 39.0 F.
Tue Oct 16 02:08:05 2018 39.0 F. 37.9 F.
Tue Oct 16 03:08:05 2018 39.0 F. 37.9 F.
Tue Oct 16 04:08:05 2018 38.0 F. 37.0 F.
Tue Oct 16 05:08:05 2018 39.0 F. 37.9 F.
Tue Oct 16 06:08:04 2018 39.0 F. 37.0 F.
Tue Oct 16 07:08:06 2018 39.0 F. 37.0 F.
Tue Oct 16 08:08:05 2018 40.0 F. 39.0 F.
Tue Oct 16 09:08:05 2018 42.0 F. 39.0 F.
Tue Oct 16 10:08:04 2018 45.0 F. 37.0 F.
Tue Oct 16 11:08:05 2018 48.0 F. 34.0 F.
Tue Oct 16 12:08:05 2018 49.0 F. 36.0 F.
Tue Oct 16 13:08:05 2018 49.0 F. 37.0 F.
Tue Oct 16 14:08:04 2018 50.0 F. 37.0 F.
Tue Oct 16 15:08:04 2018 50.0 F. 37.9 F.
Tue Oct 16 16:08:05 2018 51.0 F. 37.9 F.
Tue Oct 16 17:08:05 2018 50.0 F. 39.0 F.
Tue Oct 16 18:08:05 2018 49.0 F. 39.9 F.
Tue Oct 16 19:08:05 2018 44.0 F. 39.9 F.
Tue Oct 16 20:08:05 2018 43.0 F. 39.9 F.
Tue Oct 16 21:08:05 2018 42.0 F. 39.9 F.
Tue Oct 16 22:08:04 2018 41.0 F. 39.9 F.
Tue Oct 16 23:08:05 2018 41.0 F. 39.0 F.
Wed Oct 17 00:08:05 2018 41.0 F. 39.0 F.
Wed Oct 17 01:08:04 2018 38.0 F. 37.0 F.
Wed Oct 17 02:08:05 2018 38.0 F. 37.0 F.
Wed Oct 17 03:08:04 2018 37.0 F. 36.0 F.
Wed Oct 17 04:08:04 2018 38.0 F. 37.0 F.
Wed Oct 17 05:08:05 2018 38.0 F. 37.0 F.
Wed Oct 17 06:08:05 2018 37.0 F. 37.0 F.
Wed Oct 17 07:08:05 2018 38.0 F. 37.0 F.
Wed Oct 17 08:08:05 2018 41.0 F. 39.9 F.
Wed Oct 17 09:08:06 2018 49.0 F. 43.0 F.
Wed Oct 17 10:08:05 2018 54.0 F. 42.1 F.
Wed Oct 17 11:08:05 2018 59.0 F. 42.1 F.
Wed Oct 17 12:08:05 2018 62.0 F. 39.0 F.
Wed Oct 17 13:08:05 2018 63.0 F. 39.0 F.
Wed Oct 17 14:08:05 2018 65.0 F. 37.9 F.
Wed Oct 17 15:08:05 2018 63.0 F. 37.0 F.
Wed Oct 17 16:08:05 2018 64.0 F. 36.0 F.
Wed Oct 17 17:08:05 2018 61.0 F. 36.0 F.
Wed Oct 17 18:08:05 2018 56.0 F. 42.1 F.
Wed Oct 17 19:08:05 2018 50.0 F. 43.0 F.
Wed Oct 17 20:08:05 2018 48.0 F. 43.0 F.
Wed Oct 17 21:08:05 2018 48.0 F. 41.0 F.
Wed Oct 17 22:08:05 2018 45.0 F. 41.0 F.
Wed Oct 17 23:08:05 2018 47.0 F. 39.0 F.
Thu Oct 18 00:08:04 2018 45.0 F. 39.9 F.
Thu Oct 18 01:08:05 2018 42.0 F. 39.9 F.
Thu Oct 18 02:08:05 2018 40.0 F. 37.9 F.
Thu Oct 18 03:08:05 2018 39.0 F. 37.9 F.
Thu Oct 18 04:08:05 2018 38.0 F. 37.9 F.
Thu Oct 18 05:08:05 2018 37.0 F. 37.0 F.
Thu Oct 18 06:08:05 2018 34.0 F. 34.0 F.
Thu Oct 18 07:08:04 2018 36.0 F. 35.1 F.
Thu Oct 18 08:08:05 2018 38.0 F. 37.0 F.
Thu Oct 18 09:08:05 2018 45.0 F. 37.9 F.
Thu Oct 18 10:08:05 2018 49.0 F. 37.9 F.
Thu Oct 18 11:08:05 2018 53.0 F. 35.1 F.
Thu Oct 18 12:08:05 2018 56.0 F. 34.0 F.
Thu Oct 18 13:08:05 2018 57.0 F. 33.1 F.
Thu Oct 18 14:08:05 2018 58.0 F. 34.0 F.
Thu Oct 18 15:08:05 2018 61.0 F. 32.0 F.
Thu Oct 18 16:08:05 2018 61.0 F. 33.1 F.
Thu Oct 18 17:08:05 2018 61.0 F. 33.1 F.
Thu Oct 18 18:08:05 2018 58.0 F. 36.0 F.
Thu Oct 18 19:08:05 2018 47.0 F. 39.9 F.
Thu Oct 18 20:08:05 2018 44.0 F. 39.9 F.
Thu Oct 18 21:08:05 2018 44.0 F. 41.0 F.
Thu Oct 18 22:08:06 2018 41.0 F. 39.0 F.
Thu Oct 18 23:08:05 2018 38.0 F. 37.0 F.
Fri Oct 19 00:08:04 2018 36.0 F. 36.0 F.
Fri Oct 19 01:08:05 2018 39.0 F. 37.0 F.
Fri Oct 19 02:08:05 2018 37.0 F. 36.0 F.
Fri Oct 19 03:08:05 2018 36.0 F. 36.0 F.
Fri Oct 19 04:08:05 2018 34.0 F. 34.0 F.
Fri Oct 19 05:08:05 2018 35.0 F. 34.0 F.
Fri Oct 19 06:08:05 2018 37.0 F. 37.0 F.
Fri Oct 19 07:08:04 2018 36.0 F. 36.0 F.
Fri Oct 19 08:08:05 2018 40.0 F. 39.9 F.
Fri Oct 19 09:08:05 2018 47.0 F. 44.1 F.
Fri Oct 19 10:08:05 2018 54.0 F. 42.1 F.
Fri Oct 19 11:08:05 2018 57.0 F. 39.9 F.
Fri Oct 19 12:08:05 2018 54.0 F. 41.0 F.
Fri Oct 19 13:08:06 2018 51.0 F. 46.0 F.
Fri Oct 19 14:08:06 2018 50.0 F. 46.0 F.
Fri Oct 19 15:08:05 2018 51.0 F. 46.9 F.
Fri Oct 19 16:08:06 2018 50.0 F. 48.0 F.
Fri Oct 19 17:08:06 2018 49.0 F. 48.0 F.
Fri Oct 19 18:08:04 2018 50.0 F. 48.0 F.
Fri Oct 19 19:08:05 2018 50.0 F. 48.0 F.
Fri Oct 19 20:08:05 2018 50.0 F. 48.9 F.
Fri Oct 19 21:08:05 2018 50.0 F. 48.9 F.
Fri Oct 19 22:08:05 2018 50.0 F. 48.9 F.
Fri Oct 19 23:08:05 2018 51.0 F. 48.9 F.
Sat Oct 20 00:08:05 2018 50.0 F. 48.9 F.
Sat Oct 20 01:08:05 2018 49.0 F. 48.0 F.
Sat Oct 20 02:08:05 2018 48.0 F. 48.0 F.
Sat Oct 20 03:08:05 2018 49.0 F. 48.9 F.
Sat Oct 20 04:08:05 2018 49.0 F. 48.0 F.
Sat Oct 20 05:08:05 2018 49.0 F. 48.9 F.
Sat Oct 20 06:08:05 2018 48.0 F. 48.0 F.
Sat Oct 20 07:08:05 2018 48.0 F. 48.0 F.
Sat Oct 20 08:08:05 2018 48.0 F. 48.0 F.
Sat Oct 20 09:08:05 2018 52.0 F. 51.1 F.
Sat Oct 20 10:08:05 2018 57.0 F. 50.0 F.
Sat Oct 20 11:08:05 2018 61.0 F. 45.0 F.
Sat Oct 20 12:08:05 2018 63.0 F. 37.9 F.
Sat Oct 20 13:08:04 2018 64.0 F. 37.0 F.
Sat Oct 20 14:08:05 2018 65.0 F. 36.0 F.
Sat Oct 20 15:08:05 2018 65.0 F. 36.0 F.
Sat Oct 20 16:08:05 2018 66.0 F. 35.1 F.
Sat Oct 20 17:08:05 2018 64.0 F. 30.9 F.
Sat Oct 20 18:08:06 2018 60.0 F. 32.0 F.
Sat Oct 20 19:08:04 2018 55.0 F. 30.0 F.
Sat Oct 20 20:08:05 2018 53.0 F. 28.0 F.
Sat Oct 20 21:08:05 2018 48.0 F. 26.1 F.
Sat Oct 20 22:08:05 2018 45.0 F. 25.0 F.
Sat Oct 20 23:08:05 2018 41.0 F. 23.0 F.
Sun Oct 21 00:08:05 2018 39.0 F. 21.9 F.
Sun Oct 21 01:08:05 2018 36.0 F. 24.1 F.
Sun Oct 21 02:08:05 2018 32.0 F. 27.0 F.